Simultaneous Nadir Overpasses (SNOs) Predictions

Prediction of SNOs between AQUA and GOES-15 Satellite Orbit:

Table of predicted SNOs for the next 14.0 days since TLE Epoch: 4/5/2013
Index Date Time (AQUA) AQUA Lat,Lon GOES-15 Lat,Lon Distance(km) Time Diff (sec)
1 04/06/2013 22:23:46 0.57,-132.02 -0.04,-134.82 318.47 80
2 04/07/2013 10:45:02 0.52,-137.18 0.04,-134.82 267.95 80
3 04/09/2013 10:32:52 -0.07,-134.22 0.04,-134.74 59.20 80
4 04/11/2013 10:20:42 -0.68,-131.26 0.03,-134.65 385.98 80
5 04/11/2013 22:42:07 -0.40,-136.45 -0.04,-134.61 208.85 80
6 04/13/2013 22:29:56 0.18,-133.49 -0.04,-134.52 117.45 80
7 04/14/2013 10:51:12 0.90,-138.65 0.04,-134.51 469.43 80
8 04/15/2013 22:17:45 0.78,-130.52 -0.04,-134.42 443.35 80
9 04/16/2013 10:39:01 0.30,-135.68 0.04,-134.42 143.63 80
10 04/18/2013 10:26:49 -0.27,-132.71 0.05,-134.31 181.88 80
11 04/18/2013 22:48:13 -0.85,-137.90 -0.05,-134.27 413.12 80




NCC Satellite Simultaneous Nadir Overpasses (SNOs) Prediction Service
